Lewisetta, VA NWLON current weather conditions

sailwx.info

Wind from 236 at 2 knots gusting 3

Air temperature 7.2° C
Water temperature 8.3° C

Last reported at 2017-Feb-22 05:42 UTC.
Time now 2017-Feb-22 06:45 UTC

Location: N 37°60' W 076°28'.
View on Google Maps.

See reports from other nearby stations

  
Tides and Currents Weather Stations Pressure Air Temp Water Temp Dewpoint Dewpoint Depression Visibility Wind Speed Wind Dir Waves Ship Positions
date/time (UTC)wind fromknots sea level pressurealtimeterstation pressurevisibilityair tempwater tempwave heightnotes
2017-Feb-22 05:42 236 2 gusting 3 7.2 8.3
2017-Feb-22 05:36 223 3 gusting 3 7.2 8.3
2017-Feb-22 05:30 224 3 gusting 3 7.2 8.3
2017-Feb-22 05:24 214 2 gusting 3 7.2 8.3
2017-Feb-22 05:18 176 1 gusting 2 7.2 8.3
2017-Feb-22 05:12 179 3 gusting 3 7.2 8.3
2017-Feb-22 05:06 180 3 gusting 4 7.2 8.3
2017-Feb-22 05:00 186 3 gusting 4 7.2 8.3
2017-Feb-22 04:54 178 3 gusting 3 7.2 8.3
2017-Feb-22 04:48 177 4 gusting 5 7.2 8.3
2017-Feb-22 04:42 170 4 gusting 5 7.2 7.8
2017-Feb-22 04:36 172 3 gusting 4 7.8 7.8
2017-Feb-22 04:30 176 3 gusting 4 7.8 8.3
2017-Feb-22 04:24 171 3 gusting 4 7.8 7.8
2017-Feb-22 04:18 187 3 gusting 4 7.8 7.8
2017-Feb-22 04:12 190 2 gusting 3 7.8 7.8
2017-Feb-22 04:06 188 2 gusting 3 7.8 7.8
2017-Feb-22 04:00 185 5 gusting 5 7.8 7.8
2017-Feb-22 03:54 192 5 gusting 6 7.8 8.3
2017-Feb-22 03:48 182 5 gusting 6 7.8 8.3
2017-Feb-22 03:42 182 5 gusting 6 7.8 8.3
2017-Feb-22 03:36 184 5 gusting 6 7.8 8.3
2017-Feb-22 03:30 183 5 gusting 6 7.8 8.3
2017-Feb-22 03:24 180 6 gusting 6 7.8 8.3
2017-Feb-22 03:18 173 6 gusting 7 7.8 8.3
2017-Feb-22 03:12 173 6 gusting 7 7.8 8.3
2017-Feb-22 03:06 175 6 gusting 7 7.8 8.3
2017-Feb-22 03:00 177 6 gusting 6 7.8 8.3
2017-Feb-22 02:54 177 6 gusting 7 7.8 8.3
2017-Feb-22 02:48 182 6 gusting 7 7.8 8.3
2017-Feb-22 02:42 178 6 gusting 7 7.8 8.3
2017-Feb-22 02:36 181 6 gusting 7 7.8 8.3
2017-Feb-22 02:30 178 6 gusting 9 7.8 8.3
2017-Feb-22 02:24 182 6 gusting 8 7.8 8.3
2017-Feb-22 02:18 179 6 gusting 8 7.8 8.3
2017-Feb-22 02:12 179 6 gusting 7 7.8 8.3
2017-Feb-22 02:06 181 6 gusting 8 7.8 8.3
2017-Feb-22 02:00 178 6 gusting 9 7.8 8.3
2017-Feb-22 01:54 181 6 gusting 8 7.8 8.3
2017-Feb-22 01:48 184 6 gusting 7 7.8 8.3
2017-Feb-22 01:42 183 6 gusting 8 7.8 8.3
2017-Feb-22 01:36 181 7 gusting 9 7.8 8.3
2017-Feb-22 01:30 182 6 gusting 8 7.8 8.3
2017-Feb-22 01:24 186 6 gusting 7 7.8 8.3
2017-Feb-22 01:18 181 6 gusting 6 7.8 8.3
2017-Feb-22 01:12 191 7 gusting 10 7.8 8.3
2017-Feb-22 01:06 189 6 gusting 8 7.8 8.3
2017-Feb-22 01:00 185 6 gusting 7 7.8 8.3
2017-Feb-22 00:54 178 6 gusting 7 8.3 8.3
2017-Feb-22 00:48 180 5 gusting 6 8.3 8.3
2017-Feb-22 00:42 185 5 gusting 6 8.3 8.3
2017-Feb-22 00:36 179 6 gusting 7 8.3 8.3
2017-Feb-22 00:30 175 6 gusting 6 8.3 8.3
2017-Feb-22 00:24 174 6 gusting 8 8.3 8.3
2017-Feb-22 00:18 174 6 gusting 8 8.3 8.3
2017-Feb-22 00:12 179 7 gusting 9 8.3 8.3
2017-Feb-22 00:06 171 6 gusting 8 8.3 8.3
2017-Feb-22 00:00 168 6 gusting 8 8.3 8.3
2017-Feb-21 23:54 170 8 gusting 9 8.3 8.3
2017-Feb-21 23:48 172 7 gusting 8 8.9 8.3
2017-Feb-21 23:42 172 7 gusting 8 8.9 8.3
2017-Feb-21 23:36 174 7 gusting 9 8.9 8.3
2017-Feb-21 23:30 170 6 gusting 8 8.9 8.3
2017-Feb-21 23:24 170 6 gusting 6 8.9 8.3
2017-Feb-21 23:18 174 5 gusting 6 8.9 8.3
2017-Feb-21 23:12 171 6 gusting 7 9.4 8.3
2017-Feb-21 23:06 170 6 gusting 6 9.4 8.3
2017-Feb-21 23:00 164 6 gusting 7 9.4 8.3
2017-Feb-21 22:54 162 6 gusting 7 9.4 8.3
2017-Feb-21 22:48 160 6 gusting 8 9.4 8.3
2017-Feb-21 22:42 161 6 gusting 7 10.0 8.3
2017-Feb-21 22:36 162 7 gusting 9 10.0 8.3
2017-Feb-21 22:30 170 7 gusting 9 10.0 8.3
2017-Feb-21 22:24 158 6 gusting 8 10.0 8.3
2017-Feb-21 22:18 164 8 gusting 10 10.0 8.3
2017-Feb-21 22:12 163 8 gusting 10 10.0 8.3
2017-Feb-21 22:06 156 10 gusting 12 10.6 8.3
2017-Feb-21 22:00 163 10 gusting 12 10.6 8.3
2017-Feb-21 21:54 162 10 gusting 11 10.6 8.3
2017-Feb-21 21:48 162 11 gusting 13 10.6 8.9
2017-Feb-21 21:42 156 9 gusting 11 10.6 8.9
2017-Feb-21 21:36 167 10 gusting 13 10.6 8.3
2017-Feb-21 21:30 168 11 gusting 13 10.6 8.3
2017-Feb-21 21:24 159 11 gusting 13 10.6 8.3
2017-Feb-21 21:18 150 11 gusting 13 10.6 8.3
2017-Feb-21 21:12 154 11 gusting 13 10.6 8.3
2017-Feb-21 21:06 152 9 gusting 11 10.6 8.3
2017-Feb-21 21:00 158 9 gusting 12 10.6 8.3
2017-Feb-21 20:54 143 9 gusting 12 10.6 8.3
2017-Feb-21 20:48 115 9 gusting 11 9.4 8.3
2017-Feb-21 20:42 117 10 gusting 11 8.9 8.3
2017-Feb-21 20:36 113 11 gusting 13 8.9 8.3
2017-Feb-21 20:30 115 11 gusting 13 8.3 8.3
2017-Feb-21 20:24 111 10 gusting 13 8.9 8.3
2017-Feb-21 20:18 112 11 gusting 13 8.3 8.3
2017-Feb-21 20:12 113 11 gusting 13 8.3 8.3
2017-Feb-21 20:06 107 13 gusting 14 8.3 8.3
2017-Feb-21 20:00 108 12 gusting 13 8.3 8.3
2017-Feb-21 19:54 109 12 gusting 13 8.3 8.3
2017-Feb-21 19:48 106 12 gusting 13 8.3 8.3
2017-Feb-21 19:42 106 13 gusting 14 7.8 8.3
2017-Feb-21 19:36 108 12 gusting 13 7.8 8.3
2017-Feb-21 19:30 111 13 gusting 14 7.8 8.3
2017-Feb-21 19:24 112 13 gusting 13 7.8 8.3
2017-Feb-21 19:18 110 13 gusting 14 7.8 8.3
2017-Feb-21 19:12 108 12 gusting 13 7.8 8.3
2017-Feb-21 19:06 111 13 gusting 14 7.8 8.3
2017-Feb-21 19:00 107 13 gusting 14 7.8 8.3
2017-Feb-21 18:54 103 13 gusting 14 7.8 8.3
2017-Feb-21 18:48 102 13 gusting 14 7.8 8.3
2017-Feb-21 18:42 103 12 gusting 13 7.8 8.3
2017-Feb-21 18:36 103 11 gusting 13 7.2 8.3
2017-Feb-21 18:30 108 11 gusting 13 7.2 8.3
2017-Feb-21 18:24 105 11 gusting 13 7.2 8.3
2017-Feb-21 18:18 106 12 gusting 13 7.2 8.3
2017-Feb-21 18:12 106 13 gusting 13 6.7 8.3
2017-Feb-21 18:06 102 9 gusting 12 6.7 8.3
2017-Feb-21 18:00 102 9 gusting 11 6.7 8.3
2017-Feb-21 17:54 107 9 gusting 10 6.7 8.3
2017-Feb-21 17:48 111 8 gusting 9 6.7 8.3
2017-Feb-21 17:42 109 8 gusting 9 6.7 8.3
2017-Feb-21 17:36 104 7 gusting 8 6.7 8.3
2017-Feb-21 17:30 104 8 gusting 9 6.7 8.3
2017-Feb-21 17:24 099 9 gusting 10 6.7 8.3
2017-Feb-21 17:18 097 9 gusting 10 6.1 8.3
2017-Feb-21 17:12 097 7 gusting 9 6.7 8.3
2017-Feb-21 17:06 094 9 gusting 10 6.1 8.3
2017-Feb-21 17:00 087 6 gusting 7 6.1 8.3
2017-Feb-21 16:54 088 6 gusting 7 6.7 8.3
2017-Feb-21 16:48 084 6 gusting 7 6.7 8.3
2017-Feb-21 16:42 086 6 gusting 7 6.1 7.8
2017-Feb-21 16:36 078 6 gusting 7 6.7 7.8
2017-Feb-21 16:30 071 6 gusting 7 6.1 7.8
2017-Feb-21 16:24 088 6 gusting 7 6.7 7.8
2017-Feb-21 16:18 079 6 gusting 8 6.7 7.8
2017-Feb-21 16:12 081 5 gusting 6 6.7 7.8
2017-Feb-21 16:06 079 4 gusting 6 6.1 7.8
2017-Feb-21 16:00 077 5 gusting 6 6.1 7.8
2017-Feb-21 15:54 069 4 gusting 6 6.7 7.8
2017-Feb-21 15:48 070 4 gusting 6 6.1 7.8
2017-Feb-21 15:42 071 4 gusting 5 6.1 7.8
2017-Feb-21 15:36 078 4 gusting 5 6.1 7.8
2017-Feb-21 15:30 085 4 gusting 5 6.1 7.8
2017-Feb-21 15:24 079 3 gusting 5 6.1 7.8
2017-Feb-21 15:18 089 5 gusting 6 6.1 7.8
2017-Feb-21 15:12 098 5 gusting 6 5.6 7.8
2017-Feb-21 15:06 089 5 gusting 6 5.6 7.8
2017-Feb-21 15:00 098 5 gusting 6 5.6 7.8
2017-Feb-21 14:54 102 6 gusting 8 5.6 7.8
2017-Feb-21 14:48 100 6 gusting 7 5.6 7.8
2017-Feb-21 14:42 097 6 gusting 6 5.6 7.8
2017-Feb-21 14:36 099 7 gusting 8 5.6 7.8
2017-Feb-21 14:30 101 6 gusting 7 5.6 7.8
2017-Feb-21 14:24 104 6 gusting 8 5.6 7.8
2017-Feb-21 14:18 107 6 gusting 7 5.6 7.8
2017-Feb-21 14:12 096 5 gusting 6 5.6 7.8
2017-Feb-21 14:06 093 5 gusting 6 5.6 7.8
2017-Feb-21 14:00 097 4 gusting 6 6.1 7.8
2017-Feb-21 13:54 097 6 gusting 7 5.6 7.8
2017-Feb-21 13:48 096 6 gusting 7 5.6 7.8
2017-Feb-21 13:42 094 7 gusting 8 5.6 7.8
2017-Feb-21 13:36 098 6 gusting 8 5.6 7.8
2017-Feb-21 13:30 091 7 gusting 9 5.6 7.8
2017-Feb-21 13:24 090 8 gusting 10 5.6 7.8
2017-Feb-21 13:18 087 7 gusting 9 5.6 7.8
2017-Feb-21 13:12 076 6 gusting 7 6.1 7.8
2017-Feb-21 13:06 076 5 gusting 6 6.1 7.8
2017-Feb-21 13:00 088 5 gusting 7 6.1 7.8
2017-Feb-21 12:54 087 6 gusting 8 6.1 7.8
2017-Feb-21 12:48 096 6 gusting 8 6.1 7.8
2017-Feb-21 12:42 097 7 gusting 8 6.1 7.8
2017-Feb-21 12:36 104 8 gusting 9 5.6 7.8
2017-Feb-21 12:30 097 9 gusting 11 5.6 7.8
2017-Feb-21 12:24 100 11 gusting 13 5.6 7.8
2017-Feb-21 12:18 094 12 gusting 13 5.6 7.8
2017-Feb-21 12:12 091 12 gusting 13 5.6 7.8
2017-Feb-21 12:06 102 11 gusting 12 5.6 7.8
2017-Feb-21 12:00 099 11 gusting 13 5.6 7.8
2017-Feb-21 11:54 099 9 gusting 10 5.6 7.8
2017-Feb-21 11:48 100 9 gusting 10 5.6 7.8
2017-Feb-21 11:42 093 9 gusting 11 5.6 7.8
2017-Feb-21 11:36 089 8 gusting 10 5.6 7.8
2017-Feb-21 11:30 096 9 gusting 11 5.6 7.8
2017-Feb-21 11:24 092 10 gusting 12 5.6 7.8
2017-Feb-21 11:18 091 10 gusting 13 5.6 7.8
2017-Feb-21 11:12 096 9 gusting 10 6.1 8.3
2017-Feb-21 11:06 091 10 gusting 11 5.6 8.3
2017-Feb-21 11:00 092 9 gusting 10 5.6 8.3
2017-Feb-21 10:54 089 8 gusting 11 6.1 8.3
2017-Feb-21 10:48 094 8 gusting 9 6.1 8.3
2017-Feb-21 10:42 092 9 gusting 11 6.1 8.3
2017-Feb-21 10:36 089 7 gusting 9 6.1 8.3
2017-Feb-21 10:30 090 8 gusting 10 6.1 8.3
2017-Feb-21 10:24 088 8 gusting 10 6.1 7.8
2017-Feb-21 10:18 088 9 gusting 12 6.1 8.3
2017-Feb-21 10:12 088 9 gusting 11 6.1 8.3
2017-Feb-21 10:06 084 9 gusting 12 6.1 7.8
2017-Feb-21 10:00 091 10 gusting 11 6.1 7.8
2017-Feb-21 09:54 092 10 gusting 12 6.1 7.8
2017-Feb-21 09:48 085 8 gusting 11 6.1 8.3
2017-Feb-21 09:42 086 9 gusting 11 6.7 8.3
2017-Feb-21 09:36 090 9 gusting 12 6.7 8.3
2017-Feb-21 09:30 092 9 gusting 11 6.7 8.3
2017-Feb-21 09:24 081 6 gusting 9 6.7 8.3
2017-Feb-21 09:18 092 9 gusting 10 6.7 7.8
2017-Feb-21 09:12 089 8 gusting 9 6.7 7.8
2017-Feb-21 09:06 084 6 gusting 7 6.7 7.8
2017-Feb-21 09:00 087 6 gusting 8 6.7 8.3
2017-Feb-21 08:54 092 7 gusting 10 6.7 7.8
2017-Feb-21 08:48 094 6 gusting 8 6.7 8.3
2017-Feb-21 08:42 096 7 gusting 9 7.2 7.8
2017-Feb-21 08:36 101 7 gusting 8 7.2 8.3
2017-Feb-21 08:30 109 9 gusting 11 7.2 8.3
2017-Feb-21 08:24 101 9 gusting 11 7.2 8.3
2017-Feb-21 08:18 098 8 gusting 11 7.2 8.3
2017-Feb-21 08:12 098 8 gusting 10 7.2 8.3
2017-Feb-21 08:06 106 8 gusting 9 7.2 8.3
2017-Feb-21 08:00 111 7 gusting 9 7.2 8.3
2017-Feb-21 07:54 119 6 gusting 7 7.2 8.3
2017-Feb-21 07:48 120 7 gusting 9 7.2 8.3
2017-Feb-21 07:42 105 3 gusting 6 6.7 8.3
2017-Feb-21 07:36 009 1 gusting 1 5.6 8.3
2017-Feb-21 07:30 345 1 gusting 3 6.1 8.3
2017-Feb-21 07:24 325 2 gusting 2 6.1 8.3
2017-Feb-21 07:18 329 1 gusting 3 6.1 8.3
2017-Feb-21 07:12 333 0 gusting 0 6.1 8.3
2017-Feb-21 07:06 338 6.1 8.3
2017-Feb-21 07:00 335 6.1 8.3
2017-Feb-21 06:54 267 6.7 8.3
2017-Feb-21 06:48 244 0 gusting 0 6.7 8.3
2017-Feb-21 06:42 263 0 gusting 0 6.7 8.3
2017-Feb-21 06:36 232 1 gusting 2 6.7 8.3
2017-Feb-21 06:30 245 6.7 8.3
2017-Feb-21 06:24 274 0 gusting 1 6.7 8.3
2017-Feb-21 06:18 257 0 gusting 1 6.7 8.3
2017-Feb-21 06:12 251 2 gusting 2 6.7 8.3
2017-Feb-21 06:06 249 0 gusting 1 6.7 8.3
2017-Feb-21 06:00 211 0 gusting 1 6.7 8.3
2017-Feb-21 05:54 208 1 gusting 2 6.7 8.3
2017-Feb-21 05:48 184 2 gusting 3 7.2 8.3
2017-Feb-21 05:42 165 2 gusting 3 7.2 8.3
2017-Feb-21 05:36 118 5 gusting 5 7.8 8.3
2017-Feb-21 05:30 119 3 gusting 4 7.8 8.3
2017-Feb-21 05:24 097 3 gusting 4 7.8 8.3
2017-Feb-21 05:18 088 3 gusting 4 7.8 7.8
2017-Feb-21 05:12 097 4 gusting 5 7.8 7.8
2017-Feb-21 05:06 100 5 gusting 5 7.8 7.8
2017-Feb-21 05:00 110 4 gusting 5 7.8 7.8
2017-Feb-21 04:54 091 2 gusting 3 7.8 7.8
2017-Feb-21 04:48 098 2 gusting 3 7.8 7.8
2017-Feb-21 04:42 099 3 gusting 4 7.8 7.8
2017-Feb-21 04:36 074 3 gusting 3 7.8 7.8
2017-Feb-21 04:30 056 1 gusting 2 7.8 7.8
2017-Feb-21 04:24 057 2 gusting 3 7.8 7.8
2017-Feb-21 04:18 088 0 gusting 1 7.8 7.8
2017-Feb-21 04:12 166 1 gusting 1 7.8 7.8
2017-Feb-21 04:06 086 0 gusting 1 7.8 7.8
2017-Feb-21 04:00 084 0 gusting 1 7.8 7.8
2017-Feb-21 03:54 074 3 gusting 4 7.8 7.8
2017-Feb-21 03:48 070 4 gusting 5 7.8 7.8
2017-Feb-21 03:42 073 5 gusting 6 7.8 7.8
2017-Feb-21 03:36 078 4 gusting 5 7.8 8.3
2017-Feb-21 03:30 075 4 gusting 6 7.8 8.3
2017-Feb-21 03:24 089 5 gusting 6 7.8 8.3
2017-Feb-21 03:18 085 4 gusting 5 8.3 8.3
2017-Feb-21 03:12 082 4 gusting 6 8.3 8.3
2017-Feb-21 03:06 075 5 gusting 6 8.3 8.3
2017-Feb-21 03:00 087 4 gusting 5 8.3 8.3
2017-Feb-21 02:54 085 4 gusting 5 8.9 8.3
2017-Feb-21 02:48 079 4 gusting 5 8.9 8.3
2017-Feb-21 02:42 083 3 gusting 5 8.9 8.3
2017-Feb-21 02:36 097 4 gusting 4 8.9 8.3
2017-Feb-21 02:30 109 4 gusting 4 9.4 8.3
2017-Feb-21 02:24 120 4 gusting 5 9.4 8.3
2017-Feb-21 02:18 109 4 gusting 4 9.4 8.3
2017-Feb-21 02:12 109 1 gusting 2 9.4 8.3
2017-Feb-21 02:06 122 2 gusting 3 9.4 8.3
2017-Feb-21 02:00 126 3 gusting 3 9.4 8.3
2017-Feb-21 01:54 131 2 gusting 2 9.4 8.3
2017-Feb-21 01:48 126 1 gusting 2 9.4 8.3
2017-Feb-21 01:42 147 2 gusting 3 9.4 8.3
2017-Feb-21 01:36 087 2 gusting 4 10.6 8.3
2017-Feb-21 01:30 076 5 gusting 6 10.6 8.3
2017-Feb-21 01:24 056 4 gusting 5 10.0 8.3
2017-Feb-21 01:18 061 4 gusting 5 10.0 8.3
2017-Feb-21 01:12 060 3 gusting 4 10.6 8.3
2017-Feb-21 01:06 041 3 gusting 4 10.6 8.3
2017-Feb-21 01:00 041 1 gusting 2 11.1 8.3
2017-Feb-21 00:54 045 1 gusting 2 11.1 8.3
2017-Feb-21 00:48 032 2 gusting 3 11.1 8.3
2017-Feb-21 00:42 037 2 gusting 3 11.7 8.3
2017-Feb-21 00:36 028 1 gusting 1 11.7 8.3
2017-Feb-21 00:30 016 2 gusting 2 11.7 8.3
2017-Feb-21 00:24 015 3 gusting 3 11.1 8.3
2017-Feb-21 00:18 002 2 gusting 2 10.6 8.3
2017-Feb-21 00:12 347 2 gusting 3 10.0 8.3
2017-Feb-21 00:06 331 2 gusting 2 10.0 8.3
2017-Feb-21 00:00 317 1 gusting 1 10.0 8.3
2017-Feb-20 23:54 290 0 gusting 0 10.6 8.3
2017-Feb-20 23:48 300 0 gusting 0 10.6 8.3
2017-Feb-20 23:42 301 0 gusting 0 10.6 8.3
2017-Feb-20 23:36 339 1 gusting 1 11.7 8.3
2017-Feb-20 23:30 355 2 gusting 2 11.7 8.3
2017-Feb-20 23:24 008 1 gusting 2 11.7 8.3
2017-Feb-20 23:18 011 3 gusting 4 11.7 7.8
2017-Feb-20 23:12 011 3 gusting 3 11.7 7.8
2017-Feb-20 23:06 005 2 gusting 2 11.7 7.8
2017-Feb-20 23:00 355 2 gusting 3 12.2 8.3
2017-Feb-20 22:54 004 2 gusting 3 12.2 8.3
2017-Feb-20 22:48 344 1 gusting 1 12.2 8.3
2017-Feb-20 22:42 353 1 gusting 2 12.8 8.3
2017-Feb-20 22:36 014 0 gusting 0 12.8 8.3
2017-Feb-20 22:30 033 0 gusting 1 12.8 8.3
2017-Feb-20 22:24 062 1 gusting 2 12.8 8.3
2017-Feb-20 22:18 057 2 gusting 3 13.3 8.3
2017-Feb-20 22:12 066 2 gusting 3 12.8 8.3
2017-Feb-20 22:06 084 3 gusting 3 12.8 8.3
2017-Feb-20 22:00 064 2 gusting 3 12.8 8.3
2017-Feb-20 21:54 065 3 gusting 4 13.3 8.3
2017-Feb-20 21:48 067 4 gusting 5 13.3 8.3
2017-Feb-20 21:42 062 3 gusting 4 12.8 8.3
2017-Feb-20 21:36 071 2 gusting 4 12.8 8.3
2017-Feb-20 21:30 070 2 gusting 5 12.2 8.3
2017-Feb-20 21:24 104 2 gusting 3 12.2 8.3
2017-Feb-20 21:18 079 2 gusting 3 12.8 8.3
2017-Feb-20 21:12 059 3 gusting 6 12.8 8.3
2017-Feb-20 21:06 080 2 gusting 3 11.7 8.3
2017-Feb-20 21:00 117 4 gusting 5 11.7 8.3
2017-Feb-20 20:54 113 4 gusting 4 11.7 8.3
2017-Feb-20 20:48 116 5 gusting 6 11.7 8.3
2017-Feb-20 20:42 117 3 gusting 4 11.7 8.3
2017-Feb-20 20:36 129 3 gusting 4 11.1 8.3
2017-Feb-20 20:30 136 3 gusting 3 11.1 8.3
2017-Feb-20 20:24 121 2 gusting 3 11.1 8.3
2017-Feb-20 20:18 093 3 gusting 3 11.1 8.3
2017-Feb-20 20:12 083 3 gusting 4 11.7 8.3
2017-Feb-20 20:06 085 3 gusting 4 11.1 8.3
2017-Feb-20 20:00 097 2 gusting 3 11.1 7.8
2017-Feb-20 19:54 115 1 gusting 2 10.6 7.8
2017-Feb-20 19:48 123 1 gusting 2 10.6 7.2
2017-Feb-20 19:42 094 4 gusting 5 11.1 7.2
2017-Feb-20 19:36 094 4 gusting 4 11.1 7.2
2017-Feb-20 19:30 088 3 gusting 4 11.1 7.2
2017-Feb-20 19:24 107 4 gusting 5 11.7 7.2
2017-Feb-20 19:18 118 4 gusting 5 11.7 7.2
2017-Feb-20 19:12 120 5 gusting 6 11.1 7.2
2017-Feb-20 19:06 122 4 gusting 5 11.1 7.2
2017-Feb-20 19:00 118 5 gusting 6 11.1 7.2
2017-Feb-20 18:54 124 6 gusting 6 11.1 7.2
2017-Feb-20 18:48 121 7 gusting 7 11.7 7.2
2017-Feb-20 18:42 125 6 gusting 6 11.1 7.2
2017-Feb-20 18:36 135 6 gusting 6 11.7 7.2
2017-Feb-20 18:30 133 6 gusting 6 11.1 7.2
2017-Feb-20 18:24 130 6 gusting 6 11.7 7.2
2017-Feb-20 18:18 128 6 gusting 6 11.1 7.2
2017-Feb-20 18:12 125 6 gusting 6 11.1 7.2
2017-Feb-20 18:06 128 7 gusting 7 10.6 7.2
2017-Feb-20 18:00 124 6 gusting 6 10.6 7.2
2017-Feb-20 17:54 129 8 gusting 8 10.6 7.2
2017-Feb-20 17:48 123 6 gusting 6 10.6 7.2
2017-Feb-20 17:42 107 6 gusting 6 10.6 7.2
2017-Feb-20 17:36 108 5 gusting 6 10.0 7.2
2017-Feb-20 17:30 095 5 gusting 5 10.6 7.2
2017-Feb-20 17:24 087 4 gusting 6 11.7 7.2
2017-Feb-20 17:18 071 4 gusting 5 11.7 7.2
2017-Feb-20 17:12 074 3 gusting 4 12.8 7.2
2017-Feb-20 17:06 065 3 gusting 4 13.3 7.2
2017-Feb-20 17:00 052 3 gusting 4 13.3 7.2
2017-Feb-20 16:54 055 2 gusting 4 13.3 7.2
2017-Feb-20 16:48 049 2 gusting 4 13.3 7.2
2017-Feb-20 16:42 021 3 gusting 5 12.8 7.2
2017-Feb-20 16:36 053 5 gusting 6 13.9 7.2
2017-Feb-20 16:30 009 5 gusting 6 13.9 7.2
2017-Feb-20 16:24 015 6 gusting 6 13.9 7.2
2017-Feb-20 16:18 357 4 gusting 6 13.9 7.2
2017-Feb-20 16:12 348 6 gusting 7 13.9 7.2
2017-Feb-20 16:06 005 6 gusting 7 13.9 7.2
2017-Feb-20 16:00 001 6 gusting 8 13.9 7.2
2017-Feb-20 15:54 359 6 gusting 8 13.9 7.2
2017-Feb-20 15:48 003 5 gusting 7 13.9 7.2
2017-Feb-20 15:42 003 6 gusting 8 13.9 7.2
2017-Feb-20 15:36 13.9 7.2
2017-Feb-20 15:30 003 4 gusting 6 13.9 7.2
2017-Feb-20 15:24 357 4 gusting 6 13.9 7.2
2017-Feb-20 15:18 354 6 gusting 7 13.9 7.2
2017-Feb-20 15:12 350 6 gusting 7 13.9 7.2
2017-Feb-20 15:06 342 6 gusting 8 13.3 7.2
2017-Feb-20 15:00 343 6 gusting 6 13.3 7.2
2017-Feb-20 14:54 347 6 gusting 9 13.3 7.2
2017-Feb-20 14:48 354 6 gusting 9 13.3 7.2
2017-Feb-20 14:42 348 6 gusting 10 12.8 7.2
2017-Feb-20 14:36 347 6 gusting 11 12.8 7.2
2017-Feb-20 14:30 356 6 gusting 9 12.8 7.2
2017-Feb-20 14:24 353 6 gusting 11 12.2 7.2
2017-Feb-20 14:18 348 7 gusting 11 12.2 7.2
2017-Feb-20 14:12 358 6 gusting 8 11.7 7.2
2017-Feb-20 14:06 357 6 gusting 7 11.7 7.2
2017-Feb-20 14:00 003 5 gusting 7 11.7 7.2
2017-Feb-20 13:54 351 6 gusting 7 11.1 7.2
2017-Feb-20 13:48 360 6 gusting 7 11.1 7.2
2017-Feb-20 13:42 002 6 gusting 9 10.6 7.2
2017-Feb-20 13:36 005 6 gusting 7 10.6 7.2
2017-Feb-20 13:30 006 6 gusting 8 10.0 7.2
2017-Feb-20 13:24 007 4 gusting 6 10.6 7.2
2017-Feb-20 13:18 003 4 gusting 6 10.6 6.7
2017-Feb-20 13:12 11.1 6.7
2017-Feb-20 13:06 359 6 gusting 8 11.7 6.7
2017-Feb-20 13:00 352 7 gusting 11 12.8 7.2
2017-Feb-20 12:54 345 6 gusting 8 12.2 7.2
2017-Feb-20 12:48 347 6 gusting 9 12.2 7.2
2017-Feb-20 12:42 341 6 gusting 9 12.2 7.2
2017-Feb-20 12:36 343 6 gusting 8 12.2 7.2
2017-Feb-20 12:30 339 6 gusting 10 12.2 7.2
2017-Feb-20 12:24 337 6 gusting 10 11.7 7.2
2017-Feb-20 12:18 334 6 gusting 7 11.7 7.2
2017-Feb-20 12:12 327 6 gusting 6 11.7 7.2
2017-Feb-20 12:06 327 6 gusting 8 11.7 7.2
2017-Feb-20 12:00 328 6 gusting 7 11.7 7.2
2017-Feb-20 11:54 323 6 gusting 7 11.7 7.2
2017-Feb-20 11:48 320 7 gusting 9 11.7 7.2
2017-Feb-20 11:42 326 7 gusting 9 11.7 7.2
2017-Feb-20 11:36 325 7 gusting 9 11.7 7.2
2017-Feb-20 11:30 324 7 gusting 9 11.7 7.2
2017-Feb-20 11:24 324 7 gusting 8 11.7 7.2
2017-Feb-20 11:18 323 8 gusting 9 11.7 7.2
2017-Feb-20 11:12 321 8 gusting 9 11.7 7.2
2017-Feb-20 11:06 320 8 gusting 11 11.7 7.2
2017-Feb-20 11:00 318 8 gusting 11 11.7 7.2
2017-Feb-20 10:54 320 8 gusting 9 11.7 7.2
2017-Feb-20 10:48 323 8 gusting 9 12.2 7.2
2017-Feb-20 10:42 324 7 gusting 9 12.2 7.2
2017-Feb-20 10:36 323 9 gusting 11 12.2 7.2
2017-Feb-20 10:30 326 9 gusting 11 12.2 7.2
2017-Feb-20 10:24 326 10 gusting 13 12.8 7.2
2017-Feb-20 10:18 323 9 gusting 11 12.2 7.2
2017-Feb-20 10:12 326 9 gusting 11 12.2 7.2
2017-Feb-20 10:06 329 10 gusting 13 12.8 7.2
2017-Feb-20 10:00 330 9 gusting 13 12.8 7.2
2017-Feb-20 09:54 328 10 gusting 13 12.8 6.7
2017-Feb-20 09:48 333 11 gusting 13 12.8 7.2
2017-Feb-20 09:42 336 11 gusting 17 12.8 7.2
2017-Feb-20 09:36 339 11 gusting 16 12.8 7.2
2017-Feb-20 09:30 335 10 gusting 13 12.8 7.2
2017-Feb-20 09:24 338 11 gusting 14 12.8 7.2
2017-Feb-20 09:18 337 10 gusting 16 12.8 7.2
2017-Feb-20 09:12 337 9 gusting 13 12.8 7.2
2017-Feb-20 09:06 334 9 gusting 12 12.8 7.2
2017-Feb-20 09:00 334 9 gusting 13 12.8 7.2
2017-Feb-20 08:54 333 11 gusting 15 13.3 6.7
2017-Feb-20 08:48 335 11 gusting 15 13.3 6.7
2017-Feb-20 08:42 336 11 gusting 14 13.3 6.7
2017-Feb-20 08:36 336 12 gusting 14 13.3 6.7
2017-Feb-20 08:30 336 10 gusting 16 12.8 6.7
2017-Feb-20 08:24 335 13 gusting 17 13.3 6.7
2017-Feb-20 08:18 337 11 gusting 16 13.3 6.7
2017-Feb-20 08:12 336 13 gusting 19 13.3 6.7
2017-Feb-20 08:06 339 11 gusting 14 12.8 7.2
2017-Feb-20 08:00 340 10 gusting 15 12.8 7.2
2017-Feb-20 07:54 343 8 gusting 12 12.8 7.2
2017-Feb-20 07:48 340 9 gusting 13 13.3 7.2
2017-Feb-20 07:42 334 9 gusting 12 13.3 7.2
2017-Feb-20 07:36 336 12 gusting 15 13.3 7.2
2017-Feb-20 07:30 331 9 gusting 13 12.8 7.2
2017-Feb-20 07:24 328 12 gusting 13 13.3 7.2
2017-Feb-20 07:18 329 12 gusting 14 13.3 7.2
2017-Feb-20 07:12 336 11 gusting 15 12.8 7.2
2017-Feb-20 07:06 325 9 gusting 13 12.8 7.2
2017-Feb-20 07:00 321 10 gusting 13 12.8 7.2
2017-Feb-20 06:54 325 9 gusting 12 12.8 7.2
2017-Feb-20 06:48 327 9 gusting 12 12.8 7.2
2017-Feb-20 06:42 324 9 gusting 11 12.8 7.2
2017-Feb-20 06:36 328 9 gusting 11 12.8 7.2
2017-Feb-20 06:30 322 10 gusting 12 12.8 7.2
2017-Feb-20 06:24 322 10 gusting 13 12.8 7.2
2017-Feb-20 06:18 322 10 gusting 13 12.8 7.2
2017-Feb-20 06:12 317 8 gusting 9 12.8 7.2
2017-Feb-20 06:06 313 7 gusting 9 12.8 6.7
2017-Feb-20 06:00 308 7 gusting 8 12.8 6.7